• In Latvia
  • List of Countries
  • For 7 days
  • Water Temperature
  • Satellite Maps
  • Weather Map
  • Weather Widgets
  • user-avatar
    Login

    Hourly Weather Podgornyy Dol

    Today, 15 July, Sunday

    Time Temperature Precipitation Wind Pressure Humidity
    00:00 +19°C° 0.4 mm 2 mps 746 mmHg 92%
    01:00 +19°C° 0 mm 2 mps 746 mmHg 93%
    02:00 +19°C° 0 mm 2 mps 746 mmHg 93%
    03:00 +18°C° 0 mm 2 mps 746 mmHg 93%
    04:00 +19°C° 0 mm 2 mps 746 mmHg 91%
    05:00 +20°C° 0 mm 2 mps 747 mmHg 90%
    06:00 +21°C° 0 mm 2 mps 747 mmHg 89%
    07:00 +23°C° 0 mm 2 mps 747 mmHg 84%
    08:00 +25°C° 0 mm 3 mps 747 mmHg 80%
    09:00 +26°C° 0 mm 3 mps 747 mmHg 76%
    10:00 +26°C° 0.3 mm 3 mps 747 mmHg 73%
    11:00 +27°C° 0.3 mm 4 mps 747 mmHg 71%
    12:00 +28°C° 0.3 mm 4 mps 747 mmHg 68%
    13:00 +28°C° 0.4 mm 4 mps 747 mmHg 69%
    14:00 +28°C° 0.4 mm 4 mps 747 mmHg 69%
    15:00 +28°C° 0 mm 3 mps 747 mmHg 70%
    16:00 +28°C° 0.4 mm 3 mps 747 mmHg 74%
    17:00 +27°C° 0.4 mm 3 mps 747 mmHg 78%
    18:00 +27°C° 0.4 mm 3 mps 747 mmHg 82%
    19:00 +25°C° 0.3 mm 3 mps 747 mmHg 85%
    20:00 +24°C° 0.3 mm 3 mps 747 mmHg 89%
    21:00 +21°C° 0.3 mm 3 mps 747 mmHg 92%
    22:00 +21°C° 0 mm 3 mps 747 mmHg 93%
    23:00 +20°C° 0 mm 3 mps 747 mmHg 93%

    Tomorrow, 16 July, Monday

    Time Temperature Precipitation Wind Pressure Humidity
    00:00 +20°C° 0 mm 3 mps 747 mmHg 93%
    01:00 +20°C° 0 mm 3 mps 747 mmHg 94%
    02:00 +19°C° 0 mm 3 mps 747 mmHg 94%
    03:00 +19°C° 0 mm 3 mps 747 mmHg 95%
    04:00 +20°C° 0 mm 3 mps 747 mmHg 93%
    05:00 +21°C° 0 mm 3 mps 748 mmHg 92%
    06:00 +21°C° 0 mm 4 mps 748 mmHg 90%
    07:00 +23°C° 0.6 mm 4 mps 748 mmHg 87%
    08:00 +25°C° 0.6 mm 4 mps 748 mmHg 84%
    09:00 +26°C° 0.6 mm 4 mps 748 mmHg 81%
    10:00 +27°C° 1.2 mm 4 mps 748 mmHg 78%
    11:00 +27°C° 1.2 mm 5 mps 748 mmHg 75%
    12:00 +28°C° 1.2 mm 5 mps 748 mmHg 73%
    13:00 +28°C° 0.6 mm 5 mps 748 mmHg 73%
    14:00 +28°C° 0.6 mm 5 mps 747 mmHg 73%
    15:00 +28°C° 0.6 mm 5 mps 747 mmHg 74%
    16:00 +28°C° 0.2 mm 5 mps 747 mmHg 76%
    17:00 +27°C° 0.2 mm 4 mps 747 mmHg 78%
    18:00 +27°C° 0.2 mm 3 mps 747 mmHg 81%
    19:00 +25°C° 0 mm 4 mps 747 mmHg 83%
    20:00 +23°C° 0 mm 4 mps 747 mmHg 85%
    21:00 +22°C° 0 mm 4 mps 747 mmHg 86%
    22:00 +21°C° 0 mm 4 mps 747 mmHg 87%
    23:00 +20°C° 0 mm 4 mps 747 mmHg 87%

    Day after tomorrow, 17 July, Tuesday

    Time Temperature Precipitation Wind Pressure Humidity
    00:00 +20°C° 0 mm 4 mps 747 mmHg 87%
    01:00 +20°C° 0 mm 4 mps 747 mmHg 87%
    02:00 +19°C° 0 mm 4 mps 747 mmHg 88%
    03:00 +19°C° 0 mm 4 mps 747 mmHg 89%
    04:00 +20°C° 0 mm 4 mps 747 mmHg 88%
    05:00 +20°C° 0 mm 4 mps 747 mmHg 87%
    06:00 +20°C° 0 mm 5 mps 747 mmHg 86%
    07:00 +21°C° 0.1 mm 5 mps 747 mmHg 86%
    08:00 +21°C° 0.1 mm 5 mps 747 mmHg 86%
    09:00 +21°C° 0.1 mm 5 mps 746 mmHg 86%
    10:00 +21°C° 0.3 mm 5 mps 746 mmHg 87%
    11:00 +21°C° 0.3 mm 5 mps 746 mmHg 88%
    12:00 +21°C° 0.3 mm 6 mps 746 mmHg 89%
    13:00 +22°C° 0.2 mm 6 mps 745 mmHg 87%
    14:00 +22°C° 0.2 mm 6 mps 745 mmHg 85%
    15:00 +23°C° 0.2 mm 6 mps 745 mmHg 84%
    16:00 +23°C° 1.8 mm 7 mps 744 mmHg 85%
    17:00 +23°C° 1.8 mm 7 mps 744 mmHg 87%
    18:00 +23°C° 1.8 mm 8 mps 743 mmHg 88%
    19:00 +23°C° 1.5 mm 7 mps 743 mmHg 89%
    20:00 +22°C° 1.5 mm 7 mps 743 mmHg 89%
    21:00 +22°C° 1.5 mm 7 mps 743 mmHg 90%
    22:00 +22°C° 0.5 mm 7 mps 743 mmHg 90%
    23:00 +22°C° 0.5 mm 7 mps 743 mmHg 90%

    18 July, Wednesday

    Time Temperature Precipitation Wind Pressure Humidity
    00:00 +22°C° 0.5 mm 7 mps 743 mmHg 90%
    01:00 +21°C° 0.1 mm 6 mps 743 mmHg 92%
    02:00 +21°C° 0.1 mm 6 mps 743 mmHg 93%
    03:00 +20°C° 0.1 mm 5 mps 743 mmHg 95%
    04:00 +21°C° 0 mm 5 mps 743 mmHg 93%
    05:00 +21°C° 0 mm 5 mps 743 mmHg 92%
    06:00 +22°C° 0 mm 5 mps 744 mmHg 91%
    07:00 +23°C° 0 mm 5 mps 744 mmHg 86%
    08:00 +25°C° 0 mm 5 mps 744 mmHg 80%
    09:00 +26°C° 0 mm 6 mps 745 mmHg 75%
    10:00 +26°C° 0 mm 5 mps 745 mmHg 72%
    11:00 +27°C° 0 mm 5 mps 745 mmHg 69%
    12:00 +28°C° 0 mm 5 mps 745 mmHg 66%
    13:00 +28°C° 0 mm 5 mps 746 mmHg 66%
    14:00 +28°C° 0 mm 4 mps 746 mmHg 65%
    15:00 +29°C° 0 mm 4 mps 746 mmHg 64%
    16:00 +28°C° 0.4 mm 3 mps 746 mmHg 69%
    17:00 +28°C° 0.4 mm 2 mps 747 mmHg 73%
    18:00 +27°C° 0.4 mm 2 mps 747 mmHg 77%
    19:00 +25°C° 0.1 mm 1 mps 747 mmHg 79%
    20:00 +24°C° 0.1 mm 1 mps 747 mmHg 80%
    21:00 +23°C° 0.1 mm 1 mps 747 mmHg 82%
    22:00 +22°C° 0 mm 1 mps 747 mmHg 83%
    23:00 +22°C° 0 mm 1 mps 748 mmHg 84%

    19 July, Thursday

    Time Temperature Precipitation Wind Pressure Humidity
    00:00 +20°C° 0 mm 2 mps 748 mmHg 85%
    01:00 +20°C° 0.1 mm 2 mps 748 mmHg 86%
    02:00 +20°C° 0.1 mm 2 mps 748 mmHg 87%
    03:00 +21°C° 0.1 mm 1 mps 748 mmHg 88%
    04:00 +22°C° 0.1 mm 1 mps 748 mmHg 86%
    05:00 +23°C° 0.1 mm 1 mps 748 mmHg 85%
    06:00 +24°C° 0.1 mm 1 mps 749 mmHg 83%
    07:00 +25°C° 0.5 mm 2 mps 749 mmHg 79%
    08:00 +27°C° 0.5 mm 2 mps 749 mmHg 74%
    09:00 +28°C° 0.5 mm 2 mps 749 mmHg 69%
    10:00 +29°C° 0.4 mm 2 mps 749 mmHg 65%
    11:00 +29°C° 0.4 mm 2 mps 749 mmHg 60%
    12:00 +30°C° 0.4 mm 2 mps 749 mmHg 55%
    13:00 +31°C° 0 mm 2 mps 749 mmHg 54%
    14:00 +31°C° 0 mm 1 mps 749 mmHg 53%
    15:00 +31°C° 0 mm 1 mps 749 mmHg 52%
    16:00 +31°C° 0 mm 1 mps 749 mmHg 56%
    17:00 +30°C° 0 mm 1 mps 749 mmHg 60%
    18:00 +29°C° 0 mm 1 mps 749 mmHg 65%
    19:00 +28°C° 0.2 mm 1 mps 749 mmHg 68%
    20:00 +26°C° 0.2 mm 1 mps 749 mmHg 71%
    21:00 +24°C° 0.2 mm 2 mps 749 mmHg 74%
    22:00 +24°C° 0.5 mm 2 mps 749 mmHg 77%
    23:00 +23°C° 0.5 mm 1 mps 749 mmHg 80%

    20 July, Friday

    Time Temperature Precipitation Wind Pressure Humidity
    00:00 +22°C° 0.5 mm 1 mps 749 mmHg 83%
    01:00 +22°C° 0.2 mm 1 mps 749 mmHg 84%
    02:00 +22°C° 0.2 mm 1 mps 749 mmHg 84%
    03:00 +22°C° 0.2 mm 1 mps 749 mmHg 85%
    04:00 +23°C° 0.1 mm 1 mps 749 mmHg 84%
    05:00 +23°C° 0.1 mm 1 mps 749 mmHg 83%
    06:00 +24°C° 0.1 mm 1 mps 749 mmHg 82%
    07:00 +26°C° 0 mm 1 mps 749 mmHg 78%
    08:00 +27°C° 0 mm 1 mps 749 mmHg 73%
    09:00 +28°C° 0 mm 2 mps 749 mmHg 69%
    10:00 +29°C° 0.4 mm 1 mps 749 mmHg 66%
    11:00 +29°C° 0.4 mm 1 mps 749 mmHg 62%
    12:00 +30°C° 0.4 mm 1 mps 749 mmHg 58%
    13:00 +30°C° 0 mm 1 mps 748 mmHg 59%
    14:00 +30°C° 0 mm 1 mps 748 mmHg 59%
    15:00 +30°C° 0 mm 2 mps 748 mmHg 59%
    16:00 +30°C° 0.1 mm 2 mps 748 mmHg 64%
    17:00 +29°C° 0.1 mm 2 mps 748 mmHg 68%
    18:00 +29°C° 0.1 mm 2 mps 748 mmHg 72%
    19:00 +27°C° 0 mm 2 mps 748 mmHg 77%
    20:00 +25°C° 0 mm 2 mps 748 mmHg 81%
    21:00 +24°C° 0 mm 2 mps 748 mmHg 85%
    22:00 +23°C° 0 mm 2 mps 748 mmHg 87%
    23:00 +23°C° 0 mm 2 mps 747 mmHg 88%
    Show more